DECAYED

STARLINK-31672, 59518 (Decayed)

Orbit data source: Space-Track

STARLINK-31672, 59518 was a payload satellite owned by SpaceX/Seattle (US) in LEO that was launched on Wed, 17 Apr 2024 UTC via an FALCON 9 launch vehicle from the Air Force Eastern Test Range (AFETR). Payload-class satellites include a variety of spacecraft equipped with specific instruments for various scientific and technological missions. These include communications satellites like Starlink; space stations such as the ISS; scientific satellites like the Hubble; Earth observation satellites from companies like Planet Labs, Umbra, and HawkEye 360; GPS; miniature CubeSats for education and research; and military/defense satellites.

Not visible in the next 10 days
Identifier
59518, 2024-073H
Orbit
Decayed
Country
Flag of USUS
Related business
Manufacturer
SpaceX/Seattle
Mission
Decayed spacecraft
Bus & Motor
STARLINK V2M, Unknown motor
Mass
730 kg wet, ~700 kg dry
Launch date (UTC)
2024-04-17 (1 year ago)
Launch vehicle
FALCON 9
Launch site
Air Force Eastern Test Range (AFETR)
Object type
Payload
Rocket body
Debris
Shape & HBR
Unknown
Radar Cross Section
Large (>1 m²)

Expand to show TLE details & history
Last TLE update: 1 year ago

TLE from 1 year ago
0 STARLINK-31672
1 59518U 24073H   24225.72233096  .07162211  90871-5  21536-2 0  9990
2 59518  42.9895 312.3956 0004608 347.7883 150.4950 16.25982038 19686
Epoch: 2024-08-12T17:20Z
TLE epoch observation values (Epoch: 2024-08-12T17:20:09.394Z)
Latitude
27.07234°
Longitude
-122.32921°
Altitude
206.094 km
Speed
7.786 km/s
True Right ascension
06h 37m 26s
True Declination
26° 55' 18"
Sunlit
Object was in daylight at epoch
Visualization orbit readout
Latitude
Unknown
Longitude
Unknown
Altitude
Unknown
Speed
Unknown
Apparent Right ascension
Unknown
Apparent Declination
Unknown
Sunlit
N/A
Visualization observer readout
Local Sidereal Time
14:33:50
Azimuth
Unknown
Elevation
Unknown
Doppler factor
Unknown
Orbital elements
Apogee altitude
208.423 km
Perigee altitude
202.356 km
Semi-major axis
6,583.526 km
Eccentricity
0.00046
Inclination
42.9895°
RAAN
312.3956°
Arg. of periapsis
347.7883°
True anomaly
150.52099°
Mean anomaly
150.495°
Eccentric anomaly
150.508°
Mean motion
4.06308 °/min
Orbital period
88.6 mins
BSTAR
0.0021536
Loading maneuver chart data...
Computing Atmospheric mass density...
Loading historical data...
Loading historical data...
Loading historical data...
Loading historical data...
Loading historical data...
Loading historical data...
Loading historical data...

Documentation

Showing up to 5 results
|